WHISKEYTOWN DAM (USBR) (WHI)

Elevation: 1210' · SACRAMENTO R basin · Operator: US Bureau of Reclamation

Provisional data, subject to change.
Query executed Friday at 7:01:27   clock

Select a sensor type for a plot of data.
Note: Reservoir Flows are daily averages.

Earlier

Date RES ELE    STORAGE    RES CHG    OUTFLOW    INFLOW    EVAP    RIV REL    PPT INC    RAIN    SPILL    DIS PWR   
 FEET   AF   AF   CFS   CFS   CFS   CFS   INCHES   INCHES   CFS   CFS  
10/01/2014 1208.53 236401 -255 723 604 10 178 0.00 0.00 0 545
10/02/2014 1208.48 236242 -159 707 631 4 197 0.00 0.00 0 510
10/03/2014 1208.36 235861 -381 867 688 13 213 0.00 0.00 0 654
10/04/2014 1208.21 235384 -477 902 675 13 213 0.00 0.00 0 689
10/05/2014 1208.00 234717 -667 859 534 11 213 0.00 0.00 0 646
10/06/2014 1207.78 234023 -694 916 580 14 212 0.00 0.00 0 704
10/07/2014 1207.42 232887 -1136 1061 498 10 212 0.00 0.00 0 849
10/08/2014 1207.19 232161 -726 973 615 8 212 0.00 0.00 0 761
10/09/2014 1207.03 231657 -504 857 608 5 197 0.00 0.00 0 660
10/10/2014 1206.77 230842 -815 854 450 7 178 0.00 0.00 0 676
10/11/2014 1206.44 229809 -1033 1444 933 10 178 0.00 0.00 0 1266
10/12/2014 1206.07 228650 -1159 1418 840 6 178 0.00 0.00 0 1240
10/13/2014 1205.67 227405 -1245 1234 612 6 178 0.00 0.00 0 1056
10/14/2014 1205.35 226411 -994 1174 682 9 177 0.00 0.00 0 997
10/15/2014 1205.38 226504 93 762 809 0 177 0.48 0.48 0 585
10/16/2014 1204.99 225292 -1212 1362 751 0 177 0.04 0.52 0 1185
10/17/2014 1204.63 224182 -1110 1283 723 0 177 0.00 0.52 0 1106
10/18/2014 1204.29 223133 -1049 1330 801 0 176 0.01 0.53 0 1154
10/19/2014 1203.96 222115 -1018 1188 675 0 176 0.01 0.54 0 1012
10/20/2014 1204.11 222577 462 1746 1979 0 176 0.01 0.55 0 1570
10/21/2014 1204.22 222917 340 1796 1967 0 176 0.58 1.13 0 1620
10/22/2014 1203.84 221748 -1169 1838 1249 0 176 0.00 1.13 0 1662
10/23/2014 1203.61 221043 -705 1411 1056 0 176 0.00 1.13 0 1235
10/24/2014 1202.78 218506 -2537 2194 916 1 175 0.43 1.56 0 2019
10/25/2014 1202.12 216501 -2005 2243 1236 4 175 0.54 2.10 0 2068
10/26/2014 1201.88 215774 -727 1192 829 4 174 0.54 2.64 0 1018
10/27/2014 1201.87 215744 -30 650 635 0 174 0.00 2.64 0 476
10/28/2014 1202.11 216470 726 352 718 0 174 0.00 2.64 0 178
10/29/2014 1201.56 214809 -1661 1613 778 2 174 0.00 2.64 0 1439
10/30/2014 1200.55 211772 -3037 2284 757 4 173 0.00 -- 0 2111
10/31/2014 -- -- -- -- -- -- -- -- -- -- --

Later | Latest

Warning! This data is preliminary and subject to revision.

Show WHI Map | Plot WHI Data | 1 Month WHI Data | Real-Time WHI Data | WHI Info